When you browse on this site, cookies collect data to enhance your experience and personalize the content and advertising you see.
Visit our Privacy Policy to learn more. By continuing to use the site, you agree to this use of cookies and data.
  • En España
  • Lista de países
  • Para 7 días
  • Temperatura del agua
  • El tiempo en el mapa
  • Informadores
  • user-avatar
    Iniciar sesión

    Tiempo cada hora Madrid

    Hoy, 3 Abril, Viernes

    Tiempo Temperatura Precipitaciones Viento Presión Humedad
    00:00 +8°C° 0 mm 2 mps 705 mmHg 72%
    01:00 +7°C° 0 mm 2 mps 705 mmHg 73%
    02:00 +6°C° 0 mm 2 mps 705 mmHg 73%
    03:00 +7°C° 0 mm 1 mps 705 mmHg 73%
    04:00 +6°C° 0 mm 1 mps 705 mmHg 74%
    05:00 +6°C° 0 mm 1 mps 705 mmHg 74%
    06:00 +5°C° 0 mm 1 mps 705 mmHg 75%
    07:00 +7°C° 0 mm 1 mps 706 mmHg 69%
    08:00 +9°C° 0 mm 1 mps 706 mmHg 63%
    09:00 +11°C° 0 mm 1 mps 706 mmHg 57%
    10:00 +12°C° 0 mm 1 mps 706 mmHg 51%
    11:00 +14°C° 0 mm 1 mps 705 mmHg 45%
    12:00 +15°C° 0 mm 1 mps 705 mmHg 39%
    13:00 +16°C° 0 mm 1 mps 705 mmHg 36%
    14:00 +18°C° 0 mm 1 mps 705 mmHg 34%
    15:00 +17°C° 0 mm 2 mps 704 mmHg 31%
    16:00 +17°C° 0 mm 2 mps 704 mmHg 34%
    17:00 +16°C° 0 mm 2 mps 704 mmHg 38%
    18:00 +16°C° 0 mm 2 mps 704 mmHg 41%
    19:00 +14°C° 0 mm 2 mps 704 mmHg 42%
    20:00 +13°C° 0 mm 1 mps 704 mmHg 44%
    21:00 +12°C° 0 mm 1 mps 705 mmHg 45%
    22:00 +11°C° 0 mm 1 mps 705 mmHg 47%
    23:00 +10°C° 0 mm 1 mps 705 mmHg 48%

    Mañana, 4 Abril, Sábado

    Tiempo Temperatura Precipitaciones Viento Presión Humedad
    00:00 +10°C° 0 mm 1 mps 705 mmHg 50%
    01:00 +10°C° 0 mm 1 mps 705 mmHg 52%
    02:00 +8°C° 0 mm 2 mps 705 mmHg 53%
    03:00 +8°C° 0 mm 2 mps 705 mmHg 55%
    04:00 +7°C° 0 mm 2 mps 705 mmHg 63%
    05:00 +7°C° 0 mm 2 mps 705 mmHg 70%
    06:00 +6°C° 0 mm 2 mps 705 mmHg 78%
    07:00 +8°C° 0 mm 2 mps 705 mmHg 72%
    08:00 +10°C° 0 mm 3 mps 705 mmHg 67%
    09:00 +11°C° 0 mm 3 mps 705 mmHg 61%
    10:00 +13°C° 0 mm 4 mps 705 mmHg 54%
    11:00 +15°C° 0 mm 4 mps 705 mmHg 47%
    12:00 +17°C° 0 mm 5 mps 705 mmHg 40%
    13:00 +17°C° 0 mm 5 mps 705 mmHg 39%
    14:00 +17°C° 0 mm 6 mps 704 mmHg 39%
    15:00 +18°C° 0 mm 7 mps 704 mmHg 38%
    16:00 +17°C° 0 mm 6 mps 704 mmHg 43%
    17:00 +16°C° 0 mm 6 mps 704 mmHg 48%
    18:00 +15°C° 0 mm 5 mps 704 mmHg 52%
    19:00 +14°C° 0 mm 5 mps 705 mmHg 57%
    20:00 +13°C° 0 mm 4 mps 705 mmHg 61%
    21:00 +12°C° 0 mm 3 mps 706 mmHg 66%
    22:00 +12°C° 0 mm 3 mps 706 mmHg 68%
    23:00 +11°C° 0 mm 3 mps 706 mmHg 70%

    Pasado mañana, 5 Abril, Domingo

    Tiempo Temperatura Precipitaciones Viento Presión Humedad
    00:00 +11°C° 0 mm 3 mps 706 mmHg 72%
    01:00 +11°C° 0.2 mm 3 mps 706 mmHg 75%
    02:00 +10°C° 0.2 mm 3 mps 706 mmHg 79%
    03:00 +10°C° 0.2 mm 3 mps 706 mmHg 82%
    04:00 +10°C° 0.1 mm 3 mps 706 mmHg 83%
    05:00 +10°C° 0.1 mm 3 mps 706 mmHg 84%
    06:00 +10°C° 0.1 mm 3 mps 706 mmHg 86%
    07:00 +11°C° 0 mm 3 mps 706 mmHg 81%
    08:00 +12°C° 0 mm 3 mps 706 mmHg 76%
    09:00 +13°C° 0 mm 4 mps 706 mmHg 72%
    10:00 +14°C° 0 mm 4 mps 706 mmHg 67%
    11:00 +15°C° 0 mm 4 mps 707 mmHg 62%
    12:00 +17°C° 0 mm 3 mps 707 mmHg 57%
    13:00 +17°C° 0 mm 3 mps 706 mmHg 56%
    14:00 +18°C° 0 mm 3 mps 706 mmHg 54%
    15:00 +18°C° 0 mm 3 mps 706 mmHg 53%
    16:00 +18°C° 0.1 mm 3 mps 706 mmHg 56%
    17:00 +18°C° 0.1 mm 3 mps 705 mmHg 60%
    18:00 +17°C° 0.1 mm 3 mps 705 mmHg 63%
    19:00 +17°C° 0.3 mm 3 mps 706 mmHg 68%
    20:00 +16°C° 0.3 mm 3 mps 706 mmHg 73%
    21:00 +14°C° 0.3 mm 3 mps 707 mmHg 78%
    22:00 +14°C° 0.3 mm 3 mps 706 mmHg 82%
    23:00 +13°C° 0.3 mm 3 mps 706 mmHg 86%

    6 Abril, Lunes

    Tiempo Temperatura Precipitaciones Viento Presión Humedad
    00:00 +13°C° 0.3 mm 3 mps 706 mmHg 90%
    01:00 +13°C° 0.7 mm 4 mps 706 mmHg 90%
    02:00 +13°C° 0.7 mm 4 mps 706 mmHg 91%
    03:00 +13°C° 0.7 mm 4 mps 706 mmHg 92%
    04:00 +12°C° 0.5 mm 3 mps 706 mmHg 92%
    05:00 +12°C° 0.5 mm 3 mps 706 mmHg 93%
    06:00 +13°C° 0.5 mm 2 mps 707 mmHg 93%
    07:00 +13°C° 0.4 mm 3 mps 707 mmHg 90%
    08:00 +13°C° 0.4 mm 3 mps 708 mmHg 86%
    09:00 +13°C° 0.4 mm 4 mps 708 mmHg 82%
    10:00 +14°C° 0.4 mm 4 mps 708 mmHg 76%
    11:00 +15°C° 0.4 mm 4 mps 709 mmHg 70%
    12:00 +17°C° 0.4 mm 4 mps 709 mmHg 64%
    13:00 +17°C° 0.5 mm 3 mps 709 mmHg 62%
    14:00 +18°C° 0.5 mm 3 mps 709 mmHg 60%
    15:00 +18°C° 0.5 mm 3 mps 709 mmHg 58%
    16:00 +17°C° 0.9 mm 3 mps 709 mmHg 65%
    17:00 +16°C° 0.9 mm 3 mps 709 mmHg 71%
    18:00 +14°C° 0.9 mm 4 mps 709 mmHg 77%
    19:00 +13°C° 1.2 mm 4 mps 710 mmHg 79%
    20:00 +12°C° 1.2 mm 4 mps 710 mmHg 81%
    21:00 +12°C° 1.2 mm 4 mps 711 mmHg 83%
    22:00 +11°C° 0.3 mm 4 mps 711 mmHg 84%
    23:00 +11°C° 0.3 mm 4 mps 711 mmHg 85%

    7 Abril, Martes

    Tiempo Temperatura Precipitaciones Viento Presión Humedad
    00:00 +11°C° 0.3 mm 3 mps 711 mmHg 86%
    01:00 +11°C° 0 mm 3 mps 711 mmHg 86%
    02:00 +11°C° 0 mm 3 mps 711 mmHg 86%
    03:00 +11°C° 0 mm 3 mps 711 mmHg 86%
    04:00 +12°C° 0 mm 2 mps 711 mmHg 86%
    05:00 +12°C° 0 mm 2 mps 711 mmHg 86%
    06:00 +12°C° 0 mm 2 mps 712 mmHg 86%
    07:00 +12°C° 0 mm 2 mps 712 mmHg 84%
    08:00 +13°C° 0 mm 2 mps 712 mmHg 81%
    09:00 +13°C° 0 mm 2 mps 712 mmHg 79%
    10:00 +14°C° 0.2 mm 2 mps 712 mmHg 75%
    11:00 +15°C° 0.2 mm 2 mps 712 mmHg 71%
    12:00 +16°C° 0.2 mm 2 mps 712 mmHg 67%
    13:00 +17°C° 0.2 mm 2 mps 712 mmHg 63%
    14:00 +18°C° 0.2 mm 2 mps 712 mmHg 59%
    15:00 +19°C° 0.2 mm 3 mps 711 mmHg 55%
    16:00 +18°C° 0.2 mm 3 mps 711 mmHg 60%
    17:00 +17°C° 0.2 mm 4 mps 711 mmHg 65%
    18:00 +15°C° 0.2 mm 4 mps 711 mmHg 70%
    19:00 +14°C° 0.1 mm 4 mps 712 mmHg 74%
    20:00 +13°C° 0.1 mm 4 mps 712 mmHg 77%
    21:00 +12°C° 0.1 mm 4 mps 712 mmHg 80%
    22:00 +11°C° 0 mm 3 mps 713 mmHg 81%
    23:00 +11°C° 0 mm 3 mps 713 mmHg 81%

    8 Abril, Miércoles

    Tiempo Temperatura Precipitaciones Viento Presión Humedad
    00:00 +10°C° 0 mm 2 mps 713 mmHg 82%
    01:00 +10°C° 0 mm 2 mps 713 mmHg 82%
    02:00 +10°C° 0 mm 2 mps 713 mmHg 82%
    03:00 +9°C° 0 mm 2 mps 712 mmHg 82%
    04:00 +9°C° 0 mm 2 mps 712 mmHg 82%
    05:00 +9°C° 0 mm 2 mps 712 mmHg 83%
    06:00 +8°C° 0 mm 2 mps 712 mmHg 83%
    07:00 +10°C° 0 mm 2 mps 712 mmHg 76%
    08:00 +12°C° 0 mm 2 mps 712 mmHg 69%
    09:00 +13°C° 0 mm 2 mps 712 mmHg 62%
    10:00 +15°C° 0 mm 2 mps 712 mmHg 58%
    11:00 +16°C° 0 mm 2 mps 712 mmHg 53%
    12:00 +17°C° 0 mm 2 mps 712 mmHg 49%
    13:00 +18°C° 0 mm 2 mps 712 mmHg 46%
    14:00 +19°C° 0 mm 2 mps 712 mmHg 44%
    15:00 +19°C° 0 mm 3 mps 711 mmHg 42%
    16:00 +19°C° 0 mm 3 mps 711 mmHg 46%
    17:00 +18°C° 0 mm 3 mps 711 mmHg 49%
    18:00 +17°C° 0 mm 3 mps 711 mmHg 52%
    19:00 +16°C° 0 mm 3 mps 711 mmHg 55%
    20:00 +14°C° 0 mm 3 mps 712 mmHg 58%
    21:00 +13°C° 0 mm 3 mps 712 mmHg 61%
    22:00 +14°C° 0 mm 2 mps 712 mmHg 63%
    23:00 +13°C° 0 mm 2 mps 712 mmHg 66%
    Mostrar más